| time (UTC) | temp F | wind direction | speed MPH | gust MPH | rain 1hr in | rain 24hr in | rain mn in | humidity % | barometer mb |
| 20260508181521 | 66 | 204 | 0.0 | 3.0 | 0.00 | 0.00 | 0.00 | 53 | 1009.0 |
| 20260508180005 | 67 | 222 | 1.0 | 4.0 | 0.00 | 0.00 | 0.00 | 51 | 1009.2 |
| 20260508174543 | 67 | 119 | 2.0 | 5.0 | 0.00 | 0.00 | 0.00 | 52 | 1009.5 |
| 20260508173059 | 67 | 56 | 0.0 | 2.0 | 0.00 | 0.00 | 0.00 | 45 | 1009.7 |
| 20260508173007 | 67 | 251 | 0.0 | 2.0 | 0.00 | 0.00 | 0.00 | 44 | 1009.8 |
| 20260508171525 | 66 | 205 | 1.0 | 6.0 | 0.00 | 0.00 | 0.00 | 54 | 1010.0 |
| 20260508170050 | 67 | 213 | 0.0 | 7.0 | 0.00 | 0.00 | 0.00 | 57 | 1010.2 |
| 20260508164546 | 66 | 254 | 1.0 | 3.0 | 0.00 | 0.00 | 0.00 | 60 | 1010.4 |
| 20260508163047 | 64 | 85 | 0.0 | 4.0 | 0.00 | 0.00 | 0.00 | 62 | 1010.7 |
| 20260508161511 | 63 | 243 | 0.0 | 4.0 | 0.00 | 0.00 | 0.00 | 61 | 1010.9 |
| 20260508160005 | 63 | 220 | 0.0 | 5.0 | 0.00 | 0.00 | 0.00 | 57 | 1011.0 |
| 20260508154523 | 62 | 46 | 2.0 | 5.0 | 0.00 | 0.00 | 0.00 | 58 | 1011.0 |
| 20260508153048 | 62 | 231 | 0.0 | 3.0 | 0.00 | 0.00 | 0.00 | 62 | 1011.2 |
| 20260508151553 | 60 | 158 | 0.0 | 4.0 | 0.00 | 0.00 | 0.00 | 63 | 1011.5 |
| 20260508151501 | 60 | 212 | 0.0 | 4.0 | 0.00 | 0.00 | 0.00 | 63 | 1011.4 |
| 20260508150110 | 60 | 232 | 1.0 | 5.0 | 0.00 | 0.00 | 0.00 | 62 | 1011.4 |
| 20260508144508 | 58 | 103 | 0.0 | 2.0 | 0.00 | 0.00 | 0.00 | 65 | 1011.5 |
| 20260508143027 | 57 | 174 | 0.0 | 1.0 | 0.00 | 0.00 | 0.00 | 63 | 1011.7 |
| 20260508141553 | 55 | 122 | 0.0 | 5.0 | 0.00 | 0.00 | 0.00 | 67 | 1011.8 |
| 20260508134555 | 54 | 238 | 0.0 | 1.0 | 0.00 | 0.00 | 0.00 | 78 | 1011.9 |
| 20260508133015 | 51 | 210 | 0.0 | 3.0 | 0.00 | 0.00 | 0.00 | 80 | 1011.8 |
| 20260508131525 | 50 | 122 | 0.0 | 3.0 | 0.00 | 0.00 | 0.00 | 83 | 1011.8 |
| 20260508130042 | 49 | 114 | 0.0 | 3.0 | 0.00 | 0.00 | 0.00 | 85 | 1011.7 |
| 20260508124537 | 48 | 129 | 0.0 | 2.0 | 0.00 | 0.00 | 0.00 | 85 | 1011.9 |
| 20260508123043 | 46 | 141 | 0.0 | 1.0 | 0.00 | 0.00 | 0.00 | 89 | 1011.8 |
| 20260508121507 | 45 | 144 | 0.0 | 1.0 | 0.00 | 0.00 | 0.00 | 90 | 1011.9 |
| 20260508120129 | 44 | 136 | 0.0 | 1.0 | 0.00 | 0.00 | 0.00 | 92 | 1011.9 |
| 20260508114526 | 43 | 136 | 0.0 | 1.0 | 0.00 | 0.00 | 0.00 | 92 | 1011.7 |
| 20260508113106 | 42 | 136 | 0.0 | 1.0 | 0.00 | 0.00 | 0.00 | 93 | 1011.8 |
| 20260508111518 | 42 | 145 | 0.0 | 1.0 | 0.00 | 0.00 | 0.00 | 93 | 1011.6 |
| 20260508110019 | 40 | 278 | 0.0 | 0.0 | 0.00 | 0.00 | 0.00 | 92 | 1011.4 |
| 20260508104533 | 40 | 278 | 0.0 | 0.0 | 0.00 | 0.00 | 0.00 | 92 | 1011.5 |
| 20260508103108 | 40 | 279 | 0.0 | 0.0 | 0.00 | 0.00 | 0.00 | 91 | 1011.5 |
| 20260508101515 | 40 | 279 | 0.0 | 0.0 | 0.00 | 0.00 | 0.00 | 91 | 1011.7 |
| 20260508100037 | 40 | 279 | 0.0 | 0.0 | 0.00 | 0.00 | 0.00 | 91 | 1011.8 |
| 20260508094526 | 40 | 279 | 0.0 | 0.0 | 0.00 | 0.00 | 0.00 | 89 | 1011.7 |
| 20260508093045 | 40 | 279 | 0.0 | 0.0 | 0.00 | 0.00 | 0.00 | 88 | 1011.8 |
| 20260508091514 | 40 | 279 | 0.0 | 0.0 | 0.00 | 0.00 | 0.00 | 85 | 1012.0 |
| 20260508090035 | 40 | 278 | 0.0 | 0.0 | 0.00 | 0.00 | 0.00 | 82 | 1012.0 |
| 20260508084531 | 41 | 278 | 0.0 | 0.0 | 0.00 | 0.00 | 0.00 | 81 | 1012.1 |
| 20260508083048 | 42 | 279 | 0.0 | 0.0 | 0.00 | 0.00 | 0.00 | 79 | 1012.1 |
| 20260508081508 | 42 | 279 | 0.0 | 1.0 | 0.00 | 0.00 | 0.00 | 78 | 1012.3 |
| 20260508080001 | 43 | 279 | 0.0 | 1.0 | 0.00 | 0.00 | 0.00 | 77 | 1012.3 |
| 20260508074528 | 43 | 279 | 0.0 | 0.0 | 0.00 | 0.00 | 0.00 | 76 | 1012.4 |
| 20260508073051 | 43 | 279 | 0.0 | 0.0 | 0.00 | 0.00 | 0.00 | 78 | 1012.5 |
| 20260508071519 | 42 | 279 | 0.0 | 1.0 | 0.00 | 0.00 | 0.00 | 80 | 1012.7 |
| 20260508070007 | 43 | 271 | 0.0 | 0.0 | 0.00 | 0.00 | 0.00 | 80 | 1012.8 |
| 20260508064535 | 44 | 271 | 0.0 | 0.0 | 0.00 | 0.00 | 0.00 | 76 | 1012.8 |
| 20260508063102 | 43 | 270 | 0.0 | 0.0 | 0.00 | 0.00 | 0.00 | 76 | 1012.7 |
| 20260508061512 | 43 | 270 | 0.0 | 0.0 | 0.00 | 0.00 | 0.00 | 78 | 1012.8 |
| 20260508060006 | 45 | 270 | 0.0 | 0.0 | 0.00 | 0.00 | 0.00 | 74 | 1012.7 |
| 20260508054529 | 46 | 270 | 0.0 | 0.0 | 0.00 | 0.00 | 0.00 | 72 | 1012.5 |
| 20260508053102 | 45 | 271 | 0.0 | 0.0 | 0.00 | 0.00 | 0.00 | 75 | 1012.5 |
| 20260508051518 | 45 | 270 | 0.0 | 0.0 | 0.00 | 0.00 | 0.00 | 76 | 1012.4 |
| 20260508050011 | 44 | 270 | 0.0 | 0.0 | 0.00 | 0.00 | 0.00 | 76 | 1012.4 |
| 20260508044523 | 45 | 270 | 0.0 | 0.0 | 0.00 | 0.00 | 0.00 | 74 | 1012.4 |
| 20260508043056 | 45 | 270 | 0.0 | 0.0 | 0.00 | 0.00 | 0.00 | 74 | 1012.3 |
| 20260508041511 | 44 | 271 | 0.0 | 0.0 | 0.00 | 0.00 | 0.00 | 77 | 1012.2 |
| 20260508040005 | 45 | 270 | 0.0 | 0.0 | 0.00 | 0.00 | 0.00 | 77 | 1012.2 |
| 20260508034532 | 46 | 261 | 0.0 | 1.0 | 0.00 | 0.00 | 0.00 | 76 | 1011.9 |
| 20260508033050 | 47 | 261 | 0.0 | 0.0 | 0.00 | 0.00 | 0.00 | 74 | 1011.7 |
| 20260508031523 | 46 | 261 | 0.0 | 0.0 | 0.00 | 0.00 | 0.00 | 76 | 1011.7 |
| 20260508030021 | 46 | 261 | 0.0 | 0.0 | 0.00 | 0.00 | 0.00 | 76 | 1011.7 |
| 20260508024544 | 46 | 261 | 0.0 | 0.0 | 0.00 | 0.00 | 0.00 | 74 | 1011.5 |
| 20260508023011 | 47 | 260 | 0.0 | 0.0 | 0.00 | 0.00 | 0.00 | 72 | 1011.3 |
| 20260508021540 | 48 | 261 | 0.0 | 0.0 | 0.00 | 0.00 | 0.00 | 71 | 1011.3 |
| 20260508020104 | 49 | 261 | 0.0 | 0.0 | 0.00 | 0.00 | 0.00 | 70 | 1011.2 |
| 20260508014547 | 50 | 260 | 0.0 | 0.0 | 0.00 | 0.00 | 0.00 | 70 | 1010.9 |
| 20260508013014 | 50 | 261 | 0.0 | 0.0 | 0.00 | 0.00 | 0.00 | 70 | 1010.7 |
| 20260508011542 | 51 | 261 | 0.0 | 0.0 | 0.00 | 0.00 | 0.00 | 68 | 1010.6 |
| 20260508004558 | 54 | 261 | 0.0 | 0.0 | 0.00 | 0.00 | 0.00 | 61 | 1010.4 |
| 20260508004512 | 54 | 261 | 0.0 | 0.0 | 0.00 | 0.00 | 0.00 | 61 | 1010.4 |
| 20260508003025 | 55 | 260 | 0.0 | 0.0 | 0.00 | 0.00 | 0.00 | 60 | 1010.4 |
| 20260508001610 | 56 | 260 | 0.0 | 0.0 | 0.00 | 0.00 | 0.00 | 61 | 1010.3 |
| 20260508000108 | 57 | 261 | 0.0 | 0.0 | 0.00 | 0.00 | 0.00 | 60 | 1010.3 |
| 20260507234505 | 58 | 305 | 0.0 | 1.0 | 0.00 | 0.00 | 0.00 | 53 | 1010.3 |
| 20260507233029 | 58 | 304 | 0.0 | 3.0 | 0.00 | 0.00 | 0.00 | 52 | 1010.4 |
| 20260507231548 | 58 | 297 | 0.0 | 4.0 | 0.00 | 0.00 | 0.00 | 56 | 1010.5 |
| 20260507230112 | 57 | 288 | 0.0 | 1.0 | 0.00 | 0.00 | 0.00 | 58 | 1011.0 |
| 20260507224513 | 59 | 298 | 0.0 | 1.0 | 0.00 | 0.00 | 0.00 | 56 | 1010.9 |
| 20260507223031 | 58 | 294 | 0.0 | 2.0 | 0.00 | 0.00 | 0.00 | 57 | 1011.3 |
| 20260507221552 | 57 | 306 | 0.0 | 3.0 | 0.00 | 0.00 | 0.00 | 57 | 1011.1 |
| 20260507220110 | 57 | 309 | 0.0 | 1.0 | 0.00 | 0.00 | 0.00 | 55 | 1011.1 |
| 20260507214505 | 57 | 309 | 0.0 | 1.0 | 0.00 | 0.00 | 0.00 | 61 | 1010.9 |
| 20260507213032 | 56 | 316 | 0.0 | 3.0 | 0.00 | 0.00 | 0.00 | 68 | 1011.0 |
| 20260507211545 | 58 | 312 | 2.0 | 7.0 | 0.00 | 0.00 | 0.00 | 50 | 1010.9 |
| 20260507210109 | 60 | 308 | 1.0 | 5.0 | 0.00 | 0.00 | 0.00 | 47 | 1010.7 |
| 20260507204507 | 62 | 254 | 1.0 | 4.0 | 0.00 | 0.00 | 0.00 | 48 | 1010.7 |
| 20260507203033 | 63 | 225 | 0.0 | 4.0 | 0.00 | 0.00 | 0.00 | 48 | 1010.8 |
| 20260507201553 | 61 | 324 | 1.0 | 5.0 | 0.00 | 0.00 | 0.00 | 49 | 1010.9 |
| 20260507200111 | 61 | 268 | 0.0 | 4.0 | 0.00 | 0.00 | 0.00 | 53 | 1011.2 |
| 20260507194507 | 63 | 231 | 1.0 | 6.0 | 0.00 | 0.00 | 0.00 | 49 | 1011.5 |
| 20260507193031 | 62 | 200 | 1.0 | 5.0 | 0.00 | 0.00 | 0.00 | 50 | 1011.8 |
| 20260507191545 | 62 | 222 | 3.0 | 6.0 | 0.00 | 0.00 | 0.00 | 50 | 1012.1 |
| 20260507190059 | 60 | 202 | 3.0 | 6.0 | 0.00 | 0.00 | 0.00 | 54 | 1012.3 |
| 20260507184552 | 60 | 248 | 4.0 | 8.0 | 0.00 | 0.00 | 0.00 | 52 | 1012.5 |
| 20260507183016 | 61 | 188 | 4.0 | 10.0 | 0.00 | 0.00 | 0.00 | 50 | 1012.7 |